Regional Weather Roundup
Issued by NWS Jackson, KY

Home | Current Version | Previous Version | Text Only | Print | Product List | Glossary Off
Versions: 1 2 3 4 5 6 7 8 9 10 11 12 13 14 15 16 17 18 19 20 21 22 23 24 25 26 27 28 29 30 31 32 33 34 35 36 37 38 39 40 41 42 43 44 45 46 47 48 49 50

000
ASUS43 KJKL 240410
RWRJKL

EAST KENTUCKY HOURLY WEATHER ROUNDUP
NATIONAL WEATHER SERVICE JACKSON KY
1200 AM EDT WED SEP 24 2014

NOTE: "FAIR" INDICATES FEW OR NO CLOUDS BELOW 12,000 FEET WITH
NO SIGNIFICANT WEATHER AND/OR OBSTRUCTIONS TO VISIBILITY.

* THESE REPORTS ARE NOT UNDER NWS QUALITY CONTROL AND MAY NOT
  REPORT WEATHER SUCH AS PRECIPITATION AND FOG.

KYZ079-080-083-085-087-088-110-112-115-119-120-240500
...EASTERN KENTUCKY...

CITY           SKY/WX    TMP DP  RH WIND       PRES   REMARKS
JACKSON        CLEAR     58  47  66 CALM      30.31R
LONDON         CLEAR     57  49  74 VRB3      30.29S
SOMERSET*      CLEAR     59  46  63 CALM      30.30R
MONTICELLO*    CLEAR     49  47  93 CALM      30.30R
WILLIAMSBURG*  CLEAR     52  52 100 CALM      30.29R
MIDDLESBORO*   CLEAR     53  52  97 CALM      30.30R
HARLAN APT*    PTCLDY    54  54 100 CALM      30.30S
HAZARD APT*    CLEAR     55  52  88 CALM      30.31R
BLACK MTN*       N/A     52  50  93 E1          N/A
PIKEVILLE APT* CLEAR     57  50  77 E3        30.31S
BIG SANDY*     CLEAR     53  50  91 NE3       30.31S
MOREHEAD APT*  CLEAR     55  45  67 CALM      30.33S
$$

KYZ035-036-041-042-044-050-067-078-099-240500
...CENTRAL KENTUCKY...

CITY           SKY/WX    TMP DP  RH WIND       PRES   REMARKS
MT STERLING*   CLEAR     46  46 100 CALM      30.32S
FLEMING/MASON* CLEAR     52  45  76 E5        30.33R
DANVILLE*      CLEAR     50  46  87 CALM      30.31R
RICHMOND*      CLEAR     52  46  82 CALM      30.29S
LEXINGTON      CLEAR     60  45  57 E7        30.30R
FRANKFORT      CLEAR     50  46  86 CALM      30.29R
$$

KYZ091>093-OHZ055-061-077-WVZ005-015-034-035-042-240500
...SOUTHERN OHIO/WEST VIRGINIA...

CITY           SKY/WX    TMP DP  RH WIND       PRES   REMARKS
COVINGTON      CLEAR     60  42  51 E7        30.31R
COLUMBUS       CLEAR     58  44  60 E3        30.34S
DAYTON         CLEAR     57  44  62 E6        30.34S
WILMINGTON     CLEAR     54  42  64 E7        30.33S
HUNTINGTON     CLEAR     51  50  96 CALM      30.31R
CHARLESTON     CLEAR     51  50  96 CALM      30.32S
PINEVILLE*     PTCLDY    53  53 100 MISG      30.38S
BECKLEY        PTCLDY    52  48  86 CALM      30.35F
BLUEFIELD      MOCLDY    55  47  74 VRB5      30.35F
$$

VAZ002-007-008-TNZ017-027-036-066-071-240500
...SOUTHWEST VIRGINIA/EAST TENNESSEE...

CITY           SKY/WX    TMP DP  RH WIND       PRES   REMARKS
WISE*          CLEAR     54  50  87 NE5       30.34S
JONESVILLE*    CLEAR     52  52 100 CALM      30.32R
ABINGDON*      PTCLDY    57  53  84 E7        30.32S
BRISTOL        CLEAR     57  51  80 CALM      30.30R
KNOXVILLE      CLEAR     60  54  80 CALM      30.24R
OAK RIDGE      CLEAR     58  54  86 E3        30.27R
CROSSVILLE     CLEAR     58  49  72 NE3       30.28R
NASHVILLE      CLEAR     59  50  72 CALM      30.24R
$$

...KEY TO REMARKS...
VSB - VISIBILITY IN MILES
WCI - WIND CHILL INDEX
HX  - HEAT INDEX

$$


USA.gov is the U.S. government's official web portal to all federal, state and local government web resources and services.